Temperature
15 15 15 15 15 15 14 14 14 14 13 13 13 13 13 13 13 13 13 13 13 13 13 13 13 13 13 13 14 14 14 14 14 14 14 14 14 14
15 14 14 15 15 14 14 14 14 14 14 13 13 13 13 13 13 13 13 13 13 13 13 13 13 13 13 13 13 13 13 13 13 13 13 13 13 13
14 14 14 14 14 14 14 14 14 14 14 13 13 13 13 13 13 13 13 13 13 12 12 12 12 12 12 13 12 12 12 12 13 13 13 13 13 13
14 14 14 14 14 14 14 14 14 14 14 13 13 13 13 13 13 13 12 12 12 12 12 12 12 12 12 12 12 12 12 12 12 12 12 12 12 12
14 14 14 14 14 14 14 14 14 14 13 13 13 13 13 13 13 12 12 12 12 12 12 12 12 12 12 12 12 11 11 11 11 11 12 12 12 12
14 14 14 14 14 14 14 13 13 13 13 13 13 13 13 13 12 12 12 12 12 12 12 12 11 11 11 11 11 11 11 11 11 11 11 11 11 11
14 14 14 13 13 13 13 13 13 13 13 13 13 13 13 12 12 12 12 12 12 12 12 11 11 11 11 11 11 11 11 10 10 10 10 10 10 10
13 13 13 13 13 13 13 13 13 13 13 13 13 12 12 12 12 12 12 12 11 11 11 11 11 11 11 11 10 10 10 10 10 10 10 10 10 10
13 13 13 13 13 13 13 13 12 12 12 12 12 12 12 11 11 11 11 11 11 11 11 11 11 11 10 10 10 10 10 10 10 10 9 9 9 9
13 13 13 13 12 12 12 12 12 12 12 11 11 11 11 11 11 11 10 10 10 10 10 10 10 10 10 10 10 10 9 9 9 9 9 9 9 9
13 12 12 12 12 12 12 12 12 12 11 11 11 11 11 10 10 10 10 10 10 10 10 9 10 10 10 10 9 9 9 9 9 9 8 8 8 8
12 12 12 12 12 11 11 11 11 11 11 11 11 10 10 10 10 10 10 9 9 9 9 9 9 8 8 9 9 9 8 8 8 8 8 8 8 7
12 12 12 12 11 11 11 11 10 10 10 10 10 10 10 10 10 9 9 9 9 8 8 8 8 8 7 8 8 8 8 8 8 7 7 7 7 7
12 12 11 11 11 11 10 10 10 10 10 10 10 10 9 9 9 9 9 8 8 8 8 7 7 7 7 7 7 7 7 7 7 7 7 7 6 6
11 11 11 10 10 10 10 10 9 9 9 9 9 9 9 8 8 8 8 8 8 8 7 7 7 6 6 6 6 6 6 6 6 6 6 6 6 6
11 11 10 10 10 10 9 9 9 9 9 8 8 8 8 8 8 7 7 7 7 7 7 6 6 6 6 6 6 5 5 5 5 5 5 5 5 5
10 10 10 10 10 9 9 9 9 8 8 8 8 8 7 7 7 7 7 6 6 6 6 6 6 6 5 5 5 5 5 5 5 5 4 4 5 4
10 10 10 9 9 9 9 8 8 8 8 7 7 7 7 6 6 6 6 6 5 5 5 5 5 5 5 5 5 4 4 4 4 4 4 3 4 4
10 9 9 9 9 8 8 8 8 7 7 7 6 6 6 6 5 5 5 5 5 4 4 4 4 4 3 3 4 4 3 3 3 3 3 3 3 3
9 9 9 8 8 8 8 7 7 7 6 6 6 5 5 5 5 5 4 4 4 4 4 4 3 3 3 2 2 3 3 3 2 2 2 2 2 3
9 8 8 8 8 7 7 7 6 6 6 5 5 5 5 4 4 4 4 4 3 3 3 3 3 2 2 2 2 2 2 2 2 2 2 2 2 2
8 8 8 7 7 7 6 6 6 5 5 5 5 4 4 4 4 3 3 3 3 2 2 2 2 2 2 1 1 1 1 1 1 1 1 1 1 1
8 7 7 7 6 6 6 6 5 5 5 4 4 4 4 3 3 3 3 3 2 2 2 1 1 1 1 1 1 0 1 1 1 1 1 1 1 1
Wind_Speed
3 3 2 1 2 2 2 3 4 2 1 2 2 2 1 0 1 3 3 5 6 7 7 8 9 10 11 11 12 12 12 12 11 11 11 10 10 9
2 3 2 1 2 2 2 2 3 4 2 2 2 2 1 0 0 1 1 3 4 5 5 6 7 8 8 9 9 9 10 10 10 10 10 10 10 10
2 3 2 2 2 2 2 2 2 3 2 1 1 1 1 1 1 1 1 1 2 3 3 3 4 5 6 6 7 7 7 8 8 9 9 9 9 10
1 2 1 2 2 2 2 2 2 2 3 1 1 1 1 1 1 1 2 2 2 2 2 3 3 3 3 4 5 5 6 6 7 8 8 8 8 8
2 2 1 2 2 1 2 2 1 1 2 2 1 1 1 1 1 2 2 2 3 3 3 4 4 4 4 4 4 4 5 6 6 6 7 8 8 8
1 1 2 3 3 2 2 1 2 2 2 2 0 1 1 2 1 1 2 2 3 3 4 4 4 5 5 5 5 5 5 6 6 6 6 7 7 7
1 1 1 3 3 3 2 2 2 2 2 1 0 1 1 1 1 1 1 3 3 2 2 3 3 4 5 6 6 5 6 6 6 6 6 6 6 7
2 1 1 1 2 3 3 3 3 3 2 2 1 1 2 2 2 1 1 1 3 2 1 3 1 3 5 6 6 7 7 7 7 7 7 7 7 7
2 1 1 1 2 2 2 3 2 2 3 3 2 3 3 3 2 1 1 2 3 3 1 3 2 3 5 6 7 7 8 8 9 9 9 9 9 9
2 3 2 1 1 2 2 1 1 1 1 1 3 3 3 3 3 2 3 2 3 2 1 2 3 3 4 6 8 8 9 10 10 10 11 10 10 10
1 1 2 2 2 2 2 1 2 3 3 1 2 2 3 3 2 1 1 1 3 3 1 1 3 3 3 4 7 9 10 11 12 12 12 11 11 11
1 1 2 3 3 3 3 2 2 3 2 2 3 4 4 4 3 1 3 2 2 3 2 1 2 2 3 3 4 6 8 11 12 13 13 13 12 9
2 2 2 3 3 3 3 3 4 3 1 1 2 2 2 2 3 2 2 3 3 4 3 2 2 2 2 4 4 4 5 6 8 9 12 13 13 10
3 3 2 2 2 2 1 2 2 1 0 0 1 2 2 3 3 3 4 4 5 6 6 3 3 3 3 4 5 4 4 6 5 5 8 11 12 13
2 3 2 2 1 1 2 1 0 0 0 1 2 3 3 3 2 3 4 4 5 6 6 5 4 4 4 5 5 5 5 4 4 4 5 5 6 6
1 1 0 0 0 1 1 1 0 1 1 2 3 3 2 2 2 2 2 3 3 5 6 7 6 4 5 6 6 6 5 4 4 6 6 6 7 8
2 1 1 1 0 1 1 1 1 1 1 2 2 2 3 3 3 3 2 2 2 4 5 5 7 7 6 6 6 7 6 6 6 6 5 7 7 7
4 2 1 2 2 2 2 2 1 2 2 2 2 2 3 4 4 3 2 3 4 5 5 5 5 5 5 5 7 7 6 6 6 6 5 7 9 7
3 2 2 3 3 2 2 2 2 3 2 2 3 3 3 3 3 4 3 4 5 5 6 5 4 3 7 9 6 7 7 7 6 6 6 6 9 9
2 3 3 3 3 3 3 3 3 2 2 2 3 3 3 3 4 4 4 5 5 6 6 5 5 5 7 9 8 7 9 8 7 8 7 7 8 10
3 3 3 3 3 3 3 3 3 3 3 3 3 3 3 3 4 5 5 7 6 6 7 7 7 9 7 5 7 7 6 10 11 8 8 8 8 7
3 3 3 3 3 3 3 3 3 3 3 3 4 4 3 3 5 6 6 6 6 7 8 7 6 5 4 6 9 10 9 8 10 14 15 13 8 7
4 3 3 3 3 3 3 3 3 3 3 4 4 4 4 4 5 5 6 6 6 7 7 7 6 5 5 7 8 9 11 11 8 8 9 14 17 20
Wind_Direction
99 99 99 88 98 106 126 143 143 136 304 299 317 318 314 271 65 67 56 52 51 50 47 45 43 43 43 42 41 40 39 38 35 33 31 28 24 22
94 94 86 84 83 93 116 126 132 147 176 268 261 279 287 285 216 115 42 35 37 42 45 46 44 41 41 41 39 37 34 32 30 28 25 23 21 19
86 101 92 91 86 79 94 101 107 123 142 286 309 320 356 338 347 326 307 336 348 10 22 33 36 33 34 35 33 31 27 24 20 19 16 16 14 12
110 105 96 96 84 75 91 100 117 134 145 170 322 346 315 294 320 339 327 317 308 329 337 346 359 5 12 14 15 17 16 13 10 8 6 5 3 2
134 134 148 117 103 97 99 99 104 104 121 148 234 323 323 335 1 350 359 344 327 316 315 313 314 320 327 334 340 343 348 350 351 354 357 358 357 356
116 130 149 152 156 151 127 133 129 104 100 117 118 343 331 323 34 350 336 330 326 333 330 325 322 321 319 315 316 318 323 328 331 333 336 341 344 346
81 88 119 125 126 135 129 148 136 121 108 110 95 12 337 344 308 288 303 313 317 331 328 324 323 319 313 310 308 306 310 315 315 317 319 321 324 328
127 103 70 87 95 102 104 116 129 137 153 151 183 215 261 258 268 273 285 347 314 310 324 305 313 290 290 293 293 293 298 303 303 301 302 304 308 312
157 158 129 79 106 97 71 66 63 92 147 161 177 219 232 237 222 260 253 237 256 280 316 293 297 283 286 294 295 291 295 300 301 298 295 296 298 302
179 186 183 208 157 134 112 60 359 331 266 199 195 223 234 231 210 220 229 251 277 290 216 268 293 283 291 290 293 294 295 297 299 297 294 293 294 296
223 181 180 199 220 159 137 164 312 313 328 293 260 277 293 294 255 119 343 342 304 296 256 223 287 295 288 283 291 298 298 296 298 299 298 298 298 297
273 267 221 215 227 192 173 180 241 276 303 339 334 323 324 322 310 212 204 230 266 286 271 218 278 314 309 286 289 300 302 300 299 296 295 295 295 294
230 253 255 241 234 214 189 195 226 234 230 256 297 316 330 330 327 315 240 206 227 253 255 204 248 256 253 288 295 287 287 295 301 301 300 297 294 288
218 232 234 230 225 211 207 240 247 246 164 306 315 306 302 296 294 306 298 268 247 253 269 239 232 241 260 281 287 292 289 288 287 293 299 301 298 291
212 220 226 240 260 269 281 286 305 175 180 264 278 277 273 278 302 319 324 313 306 295 292 274 250 249 239 257 271 275 288 286 280 285 291 288 284 289
213 243 306 7 70 309 335 333 307 213 212 239 262 277 299 310 302 301 301 308 311 303 301 290 277 254 259 260 261 271 270 274 284 285 283 282 280 276
154 105 78 58 16 312 307 299 299 308 280 269 267 284 291 290 288 287 282 288 283 289 300 302 300 280 257 254 266 266 269 273 272 275 282 286 279 277
132 144 194 212 227 239 250 273 276 267 262 259 262 266 275 280 286 289 281 274 279 282 285 291 306 317 315 282 239 256 269 273 277 273 268 279 284 282
144 192 216 227 235 237 241 246 261 268 265 263 267 272 277 280 284 287 286 284 286 284 284 285 286 287 297 296 275 242 261 279 283 281 270 267 277 281
192 213 227 232 233 239 244 249 257 269 271 273 271 271 269 275 283 285 283 282 286 288 290 288 275 265 268 279 283 278 264 262 272 278 280 279 275 279
219 227 230 231 237 240 245 247 251 261 268 265 265 264 265 270 278 280 281 283 282 282 284 282 277 275 273 280 285 282 271 266 266 270 278 287 291 290
222 225 231 230 232 238 244 247 255 261 264 261 264 266 269 270 275 279 281 283 281 279 281 284 290 293 276 275 283 288 291 290 284 277 269 263 267 273
228 227 229 230 234 240 242 248 252 258 258 259 264 268 273 278 276 275 278 279 283 287 291 295 298 292 279 275 281 287 289 293 290 288 282 276 271 271
Height
1561 1561 1561 1561 1561 1561 1561 1561 1562 1561 1561 1561 1561 1560 1560 1559 1558 1557 1556 1555 1553 1552 1550 1548 1547 1545 1544 1543 1541 1540 1539 1538 1537 1536 1535 1534 1533 1531
1561 1561 1561 1561 1561 1561 1561 1561 1561 1561 1561 1561 1560 1560 1560 1559 1558 1558 1556 1555 1554 1553 1551 1549 1548 1546 1545 1543 1542 1541 1539 1538 1537 1535 1534 1533 1531 1529
1561 1561 1561 1561 1561 1561 1561 1561 1561 1561 1560 1561 1560 1560 1559 1559 1558 1557 1556 1555 1554 1553 1551 1550 1548 1547 1546 1544 1542 1541 1539 1538 1537 1535 1534 1532 1530 1528
1561 1561 1561 1561 1561 1561 1561 1561 1561 1561 1560 1560 1560 1559 1559 1558 1558 1557 1556 1555 1554 1552 1551 1550 1548 1547 1545 1544 1542 1541 1539 1538 1536 1534 1533 1531 1529 1527
1561 1561 1561 1561 1561 1561 1560 1560 1560 1560 1560 1559 1559 1559 1558 1558 1557 1556 1555 1554 1553 1552 1550 1549 1547 1546 1545 1543 1541 1540 1538 1537 1535 1533 1531 1530 1528 1526
1560 1560 1560 1560 1560 1560 1560 1559 1559 1559 1559 1558 1558 1557 1557 1556 1555 1554 1553 1552 1551 1550 1549 1548 1546 1545 1543 1542 1540 1538 1537 1535 1533 1531 1529 1528 1526 1524
1560 1559 1559 1559 1559 1559 1558 1558 1558 1558 1557 1557 1556 1555 1555 1554 1554 1553 1551 1550 1549 1548 1547 1546 1544 1543 1541 1540 1538 1536 1534 1533 1531 1529 1527 1526 1524 1522
1558 1558 1558 1558 1558 1557 1557 1557 1557 1556 1555 1555 1554 1553 1553 1552 1551 1550 1549 1547 1546 1546 1544 1543 1542 1540 1539 1537 1536 1534 1532 1530 1528 1527 1525 1523 1522 1520
1557 1557 1556 1556 1556 1556 1555 1555 1555 1554 1554 1554 1552 1552 1551 1550 1549 1548 1547 1545 1544 1543 1541 1539 1539 1537 1536 1534 1533 1531 1529 1527 1525 1523 1522 1520 1518 1517
1555 1555 1555 1555 1555 1554 1554 1553 1552 1552 1551 1551 1550 1549 1549 1548 1547 1546 1544 1543 1541 1540 1539 1536 1535 1533 1532 1531 1529 1528 1526 1523 1521 1519 1518 1516 1514 1512
1553 1553 1553 1552 1552 1552 1551 1550 1550 1549 1549 1548 1548 1547 1546 1545 1544 1542 1541 1539 1537 1536 1535 1533 1531 1529 1527 1526 1525 1523 1521 1519 1517 1515 1513 1511 1509 1508
1551 1551 1550 1550 1550 1549 1549 1548 1547 1546 1546 1545 1544 1544 1543 1542 1541 1539 1538 1536 1534 1532 1531 1530 1527 1525 1522 1521 1520 1519 1516 1514 1512 1510 1508 1506 1504 1502
1548 1548 1548 1547 1547 1546 1546 1545 1544 1544 1543 1542 1541 1540 1539 1538 1537 1536 1535 1533 1531 1529 1528 1526 1523 1521 1519 1516 1514 1513 1511 1509 1507 1505 1503 1501 1499 1497
1545 1545 1545 1544 1544 1543 1543 1542 1541 1541 1539 1538 1537 1536 1535 1534 1533 1532 1531 1529 1527 1526 1524 1522 1519 1517 1514 1511 1509 1507 1505 1504 1501 1499 1497 1495 1493 1491
1542 1542 1542 1541 1540 1540 1539 1539 1538 1537 1536 1535 1533 1532 1531 1530 1529 1527 1526 1524 1523 1521 1519 1517 1515 1513 1510 1507 1504 1502 1499 1497 1496 1493 1491 1489 1486 1484
1539 1538 1538 1537 1537 1536 1536 1535 1534 1533 1532 1531 1530 1529 1528 1526 1524 1523 1521 1519 1517 1515 1514 1512 1510 1508 1505 1502 1499 1496 1494 1492 1489 1487 1484 1482 1480 1478
1535 1535 1534 1533 1533 1532 1532 1531 1530 1529 1528 1527 1526 1524 1523 1521 1520 1518 1516 1514 1511 1509 1507 1506 1504 1502 1499 1496 1493 1490 1488 1485 1483 1481 1478 1474 1472 1470
1532 1531 1530 1529 1529 1528 1528 1527 1526 1525 1524 1523 1522 1520 1518 1516 1514 1513 1511 1509 1506 1504 1501 1499 1497 1494 1491 1489 1488 1484 1481 1478 1476 1474 1471 1467 1463 1462
1528 1527 1526 1526 1525 1525 1524 1523 1522 1521 1520 1518 1517 1515 1513 1511 1509 1507 1505 1503 1500 1498 1496 1494 1491 1488 1484 1480 1478 1479 1475 1471 1469 1466 1463 1460 1456 1453
1524 1523 1523 1522 1522 1521 1520 1519 1517 1516 1515 1513 1512 1510 1508 1506 1504 1502 1500 1497 1495 1492 1490 1488 1486 1483 1480 1476 1471 1470 1469 1466 1462 1458 1455 1452 1448 1446
1520 1520 1519 1518 1518 1517 1515 1514 1513 1511 1510 1508 1506 1505 1503 1501 1498 1496 1494 1492 1489 1486 1483 1481 1479 1477 1474 1470 1465 1461 1460 1459 1456 1453 1448 1444 1440 1436
1516 1516 1515 1514 1513 1512 1511 1509 1508 1506 1505 1503 1501 1499 1497 1495 1493 1491 1488 1485 1483 1480 1477 1474 1472 1469 1467 1463 1458 1454 1451 1450 1448 1446 1443 1439 1435 1429
1512 1511 1511 1510 1509 1507 1506 1504 1503 1501 1499 1497 1495 1494 1492 1489 1487 1485 1482 1480 1477 1474 1471 1468 1465 1462 1459 1456 1452 1448 1445 1442 1439 1435 1433 1431 1428 1424